When you browse on this site, cookies collect data to enhance your experience and personalize the content and advertising you see.
Visit our Privacy Policy to learn more. By continuing to use the site, you agree to this use of cookies and data.

Hourly Weather Tepeapulco

Today, 16 August, Sunday

Time Temperature Precipitation Wind Pressure Humidity
00:00 +10°C° 0 mm 1 mps 561 mmHg 93%
01:00 +10°C° 0 mm 1 mps 561 mmHg 92%
02:00 +9°C° 0 mm 0 mps 560 mmHg 92%
03:00 +9°C° 0 mm 0 mps 560 mmHg 92%
04:00 +8°C° 0 mm 0 mps 560 mmHg 92%
05:00 +8°C° 0 mm 0 mps 560 mmHg 91%
06:00 +10°C° 0 mm 0 mps 562 mmHg 84%
07:00 +13°C° 0 mm 0 mps 563 mmHg 77%
08:00 +15°C° 0 mm 0 mps 564 mmHg 69%
09:00 +19°C° 0 mm 1 mps 565 mmHg 62%
10:00 +19°C° 0 mm 2 mps 566 mmHg 56%
11:00 +21°C° 0 mm 3 mps 566 mmHg 49%
12:00 +21°C° 0.4 mm 3 mps 566 mmHg 54%
13:00 +20°C° 0.4 mm 4 mps 565 mmHg 59%
14:00 +20°C° 0.4 mm 5 mps 564 mmHg 64%
15:00 +19°C° 0.8 mm 4 mps 564 mmHg 70%
16:00 +17°C° 0.8 mm 4 mps 563 mmHg 75%
17:00 +15°C° 0.8 mm 4 mps 562 mmHg 81%
18:00 +14°C° 0.1 mm 3 mps 562 mmHg 85%
19:00 +13°C° 0.1 mm 3 mps 562 mmHg 88%
20:00 +12°C° 0.1 mm 2 mps 562 mmHg 92%
21:00 +12°C° 0 mm 2 mps 562 mmHg 92%
22:00 +12°C° 0 mm 2 mps 562 mmHg 92%
23:00 +12°C° 0 mm 1 mps 563 mmHg 92%

Tomorrow, 17 August, Monday

Time Temperature Precipitation Wind Pressure Humidity
00:00 +11°C° 0 mm 1 mps 562 mmHg 92%
01:00 +11°C° 0 mm 1 mps 562 mmHg 92%
02:00 +11°C° 0 mm 1 mps 562 mmHg 93%
03:00 +10°C° 0 mm 1 mps 561 mmHg 92%
04:00 +10°C° 0 mm 1 mps 561 mmHg 92%
05:00 +9°C° 0 mm 1 mps 561 mmHg 92%
06:00 +11°C° 0 mm 1 mps 562 mmHg 85%
07:00 +14°C° 0 mm 1 mps 564 mmHg 78%
08:00 +16°C° 0 mm 1 mps 565 mmHg 71%
09:00 +17°C° 0 mm 2 mps 566 mmHg 64%
10:00 +19°C° 0 mm 3 mps 566 mmHg 57%
11:00 +21°C° 0 mm 3 mps 567 mmHg 50%
12:00 +21°C° 0.4 mm 4 mps 566 mmHg 53%
13:00 +20°C° 0.4 mm 4 mps 566 mmHg 57%
14:00 +20°C° 0.4 mm 5 mps 565 mmHg 60%
15:00 +19°C° 0.9 mm 5 mps 564 mmHg 68%
16:00 +16°C° 0.9 mm 5 mps 564 mmHg 75%
17:00 +15°C° 0.9 mm 5 mps 563 mmHg 82%
18:00 +14°C° 0.2 mm 4 mps 563 mmHg 85%
19:00 +13°C° 0.2 mm 3 mps 563 mmHg 89%
20:00 +13°C° 0.2 mm 2 mps 563 mmHg 93%
21:00 +12°C° 0 mm 2 mps 562 mmHg 93%
22:00 +12°C° 0 mm 1 mps 562 mmHg 93%
23:00 +11°C° 0 mm 1 mps 562 mmHg 93%

Day after tomorrow, 18 August, Tuesday

Time Temperature Precipitation Wind Pressure Humidity
00:00 +11°C° 0 mm 1 mps 561 mmHg 92%
01:00 +10°C° 0 mm 1 mps 561 mmHg 91%
02:00 +10°C° 0 mm 1 mps 560 mmHg 90%
03:00 +10°C° 0 mm 1 mps 561 mmHg 90%
04:00 +10°C° 0 mm 1 mps 561 mmHg 90%
05:00 +9°C° 0 mm 1 mps 561 mmHg 90%
06:00 +12°C° 0 mm 1 mps 562 mmHg 83%
07:00 +14°C° 0 mm 1 mps 563 mmHg 75%
08:00 +16°C° 0 mm 1 mps 565 mmHg 68%
09:00 +17°C° 0 mm 2 mps 565 mmHg 63%
10:00 +19°C° 0 mm 2 mps 566 mmHg 58%
11:00 +20°C° 0 mm 2 mps 566 mmHg 53%
12:00 +20°C° 0.4 mm 3 mps 565 mmHg 57%
13:00 +20°C° 0.4 mm 3 mps 565 mmHg 60%
14:00 +20°C° 0.4 mm 4 mps 564 mmHg 64%
15:00 +19°C° 0.8 mm 4 mps 564 mmHg 69%
16:00 +18°C° 0.8 mm 4 mps 563 mmHg 75%
17:00 +15°C° 0.8 mm 4 mps 562 mmHg 81%
18:00 +14°C° 0.5 mm 3 mps 562 mmHg 86%
19:00 +14°C° 0.5 mm 2 mps 562 mmHg 90%
20:00 +12°C° 0.5 mm 2 mps 562 mmHg 95%
21:00 +13°C° 0.5 mm 1 mps 562 mmHg 94%
22:00 +13°C° 0.5 mm 1 mps 562 mmHg 94%
23:00 +13°C° 0.5 mm 1 mps 562 mmHg 94%

19 August, Wednesday

Time Temperature Precipitation Wind Pressure Humidity
00:00 +13°C° 0.3 mm 1 mps 562 mmHg 93%
01:00 +13°C° 0.3 mm 1 mps 561 mmHg 93%
02:00 +11°C° 0.3 mm 0 mps 561 mmHg 93%
03:00 +11°C° 0 mm 0 mps 561 mmHg 93%
04:00 +11°C° 0 mm 0 mps 561 mmHg 93%
05:00 +11°C° 0 mm 0 mps 560 mmHg 93%
06:00 +13°C° 0 mm 1 mps 561 mmHg 88%
07:00 +14°C° 0 mm 1 mps 562 mmHg 83%
08:00 +15°C° 0 mm 1 mps 563 mmHg 77%
09:00 +16°C° 0.3 mm 1 mps 563 mmHg 72%
10:00 +19°C° 0.3 mm 1 mps 564 mmHg 67%
11:00 +19°C° 0.3 mm 2 mps 564 mmHg 62%
12:00 +19°C° 1.1 mm 2 mps 564 mmHg 63%
13:00 +19°C° 1.1 mm 3 mps 563 mmHg 64%
14:00 +19°C° 1.1 mm 3 mps 563 mmHg 66%
15:00 +19°C° 0.7 mm 3 mps 562 mmHg 70%
16:00 +18°C° 0.7 mm 3 mps 562 mmHg 74%
17:00 +17°C° 0.7 mm 3 mps 561 mmHg 79%
18:00 +14°C° 0.2 mm 3 mps 561 mmHg 83%
19:00 +13°C° 0.2 mm 2 mps 561 mmHg 88%
20:00 +12°C° 0.2 mm 1 mps 560 mmHg 93%
21:00 +11°C° 0 mm 1 mps 560 mmHg 91%
22:00 +11°C° 0 mm 1 mps 560 mmHg 90%
23:00 +11°C° 0 mm 1 mps 560 mmHg 88%

20 August, Thursday

Time Temperature Precipitation Wind Pressure Humidity
00:00 +10°C° 0 mm 1 mps 560 mmHg 85%
01:00 +9°C° 0 mm 0 mps 559 mmHg 83%
02:00 +9°C° 0 mm 0 mps 559 mmHg 81%
03:00 +9°C° 0 mm 0 mps 559 mmHg 79%
04:00 +10°C° 0 mm 1 mps 559 mmHg 77%
05:00 +10°C° 0 mm 1 mps 559 mmHg 75%
06:00 +12°C° 0 mm 1 mps 560 mmHg 69%
07:00 +14°C° 0 mm 1 mps 562 mmHg 63%
08:00 +16°C° 0 mm 1 mps 563 mmHg 57%
09:00 +18°C° 0 mm 1 mps 563 mmHg 53%
10:00 +20°C° 0 mm 1 mps 564 mmHg 50%
11:00 +21°C° 0 mm 1 mps 564 mmHg 46%
12:00 +21°C° 0 mm 2 mps 564 mmHg 45%
13:00 +21°C° 0 mm 2 mps 563 mmHg 44%
14:00 +22°C° 0 mm 3 mps 563 mmHg 43%
15:00 +20°C° 0.1 mm 3 mps 562 mmHg 53%
16:00 +19°C° 0.1 mm 4 mps 562 mmHg 63%
17:00 +18°C° 0.1 mm 4 mps 561 mmHg 73%
18:00 +16°C° 0.1 mm 3 mps 561 mmHg 79%
19:00 +14°C° 0.1 mm 2 mps 560 mmHg 86%
20:00 +12°C° 0.1 mm 1 mps 560 mmHg 93%
21:00 +12°C° 0 mm 1 mps 560 mmHg 91%
22:00 +12°C° 0 mm 1 mps 560 mmHg 89%
23:00 +11°C° 0 mm 1 mps 560 mmHg 87%

21 August, Friday

Time Temperature Precipitation Wind Pressure Humidity
00:00 +11°C° 0 mm 1 mps 559 mmHg 84%
01:00 +10°C° 0 mm 1 mps 559 mmHg 80%
02:00 +10°C° 0 mm 1 mps 558 mmHg 77%
03:00 +10°C° 0 mm 1 mps 559 mmHg 76%
04:00 +10°C° 0 mm 1 mps 559 mmHg 76%
05:00 +10°C° 0 mm 1 mps 559 mmHg 75%
06:00 +12°C° 0 mm 1 mps 560 mmHg 71%
07:00 +14°C° 0 mm 1 mps 562 mmHg 67%
08:00 +16°C° 0 mm 1 mps 563 mmHg 62%
09:00 +19°C° 0.1 mm 1 mps 563 mmHg 58%
10:00 +21°C° 0.1 mm 1 mps 564 mmHg 53%
11:00 +22°C° 0.1 mm 1 mps 564 mmHg 49%
12:00 +21°C° 0.3 mm 2 mps 564 mmHg 49%
13:00 +23°C° 0.3 mm 2 mps 563 mmHg 49%
14:00 +22°C° 0.3 mm 3 mps 563 mmHg 49%
15:00 +20°C° 0.5 mm 3 mps 562 mmHg 58%
16:00 +19°C° 0.5 mm 3 mps 562 mmHg 66%
17:00 +18°C° 0.5 mm 3 mps 561 mmHg 75%
18:00 +16°C° 0.3 mm 3 mps 561 mmHg 81%
19:00 +14°C° 0.3 mm 2 mps 560 mmHg 87%
20:00 +13°C° 0.3 mm 2 mps 560 mmHg 92%
21:00 +12°C° 0 mm 1 mps 560 mmHg 91%
22:00 +12°C° 0 mm 1 mps 560 mmHg 90%
23:00 +11°C° 0 mm 1 mps 560 mmHg 89%
Show more